Weather observations for the past three days for
Troy, Troy Municipal Airport
Imperial (Metric)
Date Time (cdt) Wind (mph) Vis. (mi.) Weather Sky Cond. Temperature (ºF) Relative Humidity Wind Chill (°F) Heat Index (°F) Pressure Precipitation (in)
Air Dwpt 6 hour altimeter (in) sea level (mb) 1 hr 3 hr 6 hr
Max. Min.
13 02:53 Calm 8.00 Fair CLR 64 64 100% 29.9 1011.9
13 01:53 Calm 10.00 Fair CLR 64.9 64.9 100% 29.91 1012.3
13 00:53 Calm 10.00 Fair CLR 66 64.9 81 66 96% 29.92 1012.7
12 23:53 Calm 10.00 Fair CLR 66.9 66 97% 29.94 1013.2
12 22:53 Calm 10.00 Fair CLR 68 66 93% 29.94 1013.4
12 21:53 Calm 10.00 Fair CLR 69.1 66.9 93% 29.94 1013.2
12 20:53 Calm 10.00 Fair CLR 72 66.9 84% 29.93 1012.9
12 19:53 Calm 10.00 Fair CLR 73.9 66 76% 29.93 1012.8
12 18:53 NW 3 10.00 Fair CLR 80.1 64 89.1 78.1 58% 82 29.92 1012.8
12 17:53 Calm 10.00 Fair CLR 87.1 57 36% 86 29.91 1012.3
12 16:53 E 3 10.00 Fair CLR 87.1 62.1 43% 88 29.91 1012.4
12 15:53 Calm 10.00 Fair CLR 86 60.1 42% 86 29.92 1012.5
12 14:53 Calm 10.00 Fair CLR 86 57 37% 85 29.93 1013.1
12 13:53 Calm 10.00 Fair CLR 86 55.9 36% 85 29.94 1013.4
12 12:53 SW 5 10.00 Fair CLR 86 57.9 87.1 63 39% 85 29.96 1013.9
12 11:53 SW 3 10.00 Fair CLR 84.9 59 42% 85 29.96 1014.0
12 10:53 Vrbl 5 10.00 Fair CLR 84.9 61 45% 85 29.96 1014.1
12 09:53 Vrbl 3 10.00 Fair CLR 80.1 64.9 60% 82 29.97 1014.5
12 08:53 E 3 10.00 Fair CLR 75 63 66% 77 29.97 1014.5
12 07:53 Calm 10.00 Fair CLR 71.1 64.9 81% 29.96 1014.1
12 06:53 Calm 10.00 Fair CLR 64 63 64.9 60.1 96% 29.95 1013.7
12 05:53 Calm 9.00 Fair CLR 60.1 60.1 100% 29.94 1013.2
12 04:53 Calm 10.00 Fair CLR 60.1 60.1 100% 29.92 1012.8
12 03:53 Calm 10.00 Fair CLR 61 61 100% 29.91 1012.4
12 02:53 Calm 10.00 Fair CLR 62.1 61 96% 29.91 1012.4
12 01:53 Calm 9.00 Fair CLR 63 62.1 97% 29.91 1012.5
12 00:53 Calm 10.00 Fair CLR 63 63 82.9 63 100% 29.93 1012.8
11 23:53 Calm 10.00 Fair CLR 64 63 96% 29.93 1012.9
11 22:53 Calm 10.00 Fair CLR 64.9 64 97% 29.92 1012.6
11 21:53 Calm 10.00 Fair CLR 66.9 64 91% 29.91 1012.3
11 20:53 Calm 10.00 Fair CLR 70 64 82% 29.9 1012.1
11 19:53 Calm 10.00 Fair CLR 73.9 64 71% 29.89 1011.8
11 18:53 N 6 10.00 Fair CLR 82.9 60.1 88 82.9 46% 83 29.88 1011.4
11 17:53 N 7 10.00 Fair CLR 84.9 59 42% 85 29.87 1011.0
11 16:53 N 9 10.00 Fair CLR 84.9 60.1 43% 85 29.87 1011.0
11 15:53 N 7 10.00 Fair CLR 87.1 60.1 40% 87 29.87 1011.1
11 14:53 Vrbl 3 10.00 Fair CLR 87.1 57 36% 86 29.88 1011.4
11 13:53 NE 3 10.00 Fair CLR 86 59 40% 85 29.9 1011.8
11 12:53 N 9 10.00 Fair CLR 86 57 87.1 68 37% 85 29.91 1012.2
11 11:53 Vrbl 7 10.00 Fair CLR 84.9 57.9 40% 84 29.91 1012.2
11 10:53 N 8 10.00 Fair CLR 84 55.9 38% 83 29.92 1012.6
11 09:53 Vrbl 5 10.00 A Few Clouds FEW048 81 61 51% 82 29.92 1012.5
11 08:53 NE 7 10.00 Fair CLR 77 59 54% 79 29.92 1012.7
11 07:53 NE 12 10.00 Fair CLR 73.9 60.1 62% 29.91 1012.5
11 06:53 Calm 9.00 Fair CLR 68 63 69.1 63 84% 29.91 1012.4
11 05:53 Calm 8.00 A Few Clouds FEW047 63 62.1 97% 29.9 1011.9
11 04:53 Calm 10.00 Fair CLR 64 62.1 93% 29.89 1011.6
11 03:53 Calm 8.00 Partly Cloudy SCT048 66 64 93% 29.88 1011.2
11 02:53 Calm 9.00 Partly Cloudy SCT046 66.9 64.9 93% 29.86 1010.7
11 01:53 Calm 9.00 Fair CLR 68 64.9 90% 29.87 1010.7
11 00:53 Calm 10.00 Fair CLR 68 64 84 68 87% 29.87 1010.9
10 23:53 N 3 10.00 Fair CLR 73 61 66% 29.87 1010.8
10 22:53 Calm 10.00 Fair CLR 72 64.9 79% 29.87 1010.7
10 21:53 N 7 10.00 Mostly Cloudy FEW049 BKN060 78.1 62.1 58% 80 29.85 1010.3
10 20:53 N 3 10.00 Mostly Cloudy BKN048 79 66 65% 81 29.83 1009.4
10 19:53 N 7 10.00 Mostly Cloudy BKN044 82 70 67% 86 29.81 1008.7
10 18:53 N 8 10.00 Fair CLR 84.9 70 91 82 61% 89 29.79 1008.2
10 17:53 N 12 10.00 A Few Clouds FEW043 87.1 71.1 59% 93 29.77 1007.6
10 16:53 NW 8 10.00 A Few Clouds FEW039 90 72 56% 97 29.78 1007.8
10 15:53 Calm 10.00 Mostly Cloudy FEW040 BKN060 86 70 59% 91 29.79 1008.0
10 14:53 Vrbl 5 10.00 Thunderstorm in Vicinity FEW038 SCT055 89.1 72 57% 96 29.79 1008.3
10 13:53 N 10 10.00 Thunderstorm in Vicinity FEW034 SCT070 BKN090 89.1 73 59% 97 29.82 1009.1
10 12:53 N 8 10.00 Thunderstorm in Vicinity SCT032 SCT042 BKN060 89.1 73.9 90 73.9 61% 98 29.84 1009.9
10 11:53 N 9 10.00 Mostly Cloudy SCT027 SCT046 BKN070 88 75 66% 98 29.85 1010.1
10 10:53 N 6 10.00 A Few Clouds FEW022 88 73.9 63% 97 29.84 1010.0
10 09:53 NW 3 10.00 A Few Clouds FEW060 84.9 75 72% 93 29.85 1010.1
10 08:53 Vrbl 5 10.00 Fair CLR 82.9 73.9 74% 89 29.85 1010.2
10 07:53 Vrbl 3 9.00 Fair CLR 77 73 88% 78 29.85 1010.2
10 06:53 Calm 5.00 Fog/Mist CLR 73 72 75.9 70 96% 29.84 1009.9
10 05:53 Calm 2.50 Fog/Mist CLR 71.1 70 96% 29.83 1009.6
10 04:53 Calm 6.00 Fog/Mist CLR 72 71.1 97% 29.83 1009.4
10 03:53 S 3 7.00 Fair CLR 72 71.1 97% 29.82 1009.3
Date Time (cdt) Wind (mph) Vis. (mi.) Weather Sky Cond. Air Dwpt Max. Min. Relative Humidity Wind Chill (°F) Heat Index (°F) altimeter (in) sea level (mb) 1 hr 3 hr 6 hr
6 hour
Temperature (ºF) Pressure Precipitation (in)